[[{"header":{"parameterUnit":"m.s-1","parameterCategory":1,"la1":30.2991,"la2":30.254,"lo1":-89.0895,"lo2":-89.0444,"dy":0.0017,"dx":0.0017,"nx":28,"ny":28,"refTime":"2023-10-06T21:00:00:Z","depth":0,"parameterNumber":2,"parameterNumberName":"U-component_of_WINDS"},"data":[0,0,0,0,0,0,0,0,0,0,0,0,0,0,0,0,0,0,0,0,0,0,0,0,0,0,0,0,0,0,0,0,0,0,0,0,0,0,0,0,0,0,0,0,0,0,0,0,0,0,0,0,0,0,0,0,0,0,0.3922,0.3922,0,0.3904,0.3904,0.3903,0.3884,0.3884,0.3883,0.3883,0.3864,0.3864,0.3864,0,0,0,0,0,0,0,0,0,0,0,0,0,0.3939,0.3939,0.3922,0.3922,0.3921,0.3904,0.3904,0.3903,0.3884,0.3884,0.3883,0.3883,0.3864,0.3864,0.3864,0,0,0,0,0,0,0,0,0,0,0,0,0,0.3928,0.3939,0.3922,0.391,0.3908,0.3904,0.3904,0.3903,0.3884,0.3884,0.3883,0.3883,0.3864,0.3864,0.3864,0.387,0,0,0.3863,0.3862,0,0,0,0,0,0,0,0,0.3928,0.3927,0.3912,0.391,0.3909,0.3896,0.3903,0.3892,0.3884,0.3893,0.3883,0.3882,0.3875,0.3874,0.3871,0.3869,0.3868,0.3863,0.3862,0.3862,0.3862,0,0,0,0,0,0,0,0.3929,0.3928,0.3915,0.3911,0.391,0.3905,0.3903,0.3901,0.3887,0.3892,0.3891,0.3889,0.3874,0.3872,0.3871,0.3868,0.3863,0.3862,0.3862,0.3862,0.387,0.387,0,0,0,0,0,0,0.3932,0.3928,0.3915,0.3914,0.3918,0.3905,0.3903,0.39,0.3887,0.3884,0.3889,0.3888,0.3872,0.3871,0.387,0.3876,0.3862,0.3862,0.3862,0.3869,0.387,0.387,0,0,0,0,0,0,0.3932,0.3931,0.3916,0.3921,0.3919,0.3905,0.3903,0.39,0.3898,0.3884,0.3882,0.3889,0.3872,0.387,0.387,0.3875,0.3862,0.3861,0.3869,0.387,0.387,0.3889,0,0,0,0,0,0,0.3933,0.3931,0.3933,0.3921,0.3918,0.3916,0.3903,0.39,0.3897,0.3895,0.3884,0.3881,0.3872,0.3871,0.387,0.3874,0.3861,0.3868,0.3869,0.387,0.3887,0.389,0.3892,0,0,0,0,0,0.3933,0.3939,0.3933,0.3932,0.3921,0.3917,0.3915,0.3904,0.3898,0.39,0.3891,0.3882,0.3875,0.3871,0.387,0.3874,0.3868,0.3869,0.387,0.3886,0.3889,0.3892,0,0,0,0,0,0,0.3952,0.3937,0.3931,0.3933,0.3926,0.3914,0.3916,0.3907,0.3902,0.3901,0.3887,0.3885,0.3886,0.388,0.3876,0.388,0.387,0.3871,0.3883,0.3886,0.3888,0.3889,0.3861,0,0,0,0,0,0.3956,0.3954,0.3942,0.3944,0.3942,0.3929,0.3927,0.3919,0.3912,0.3909,0.39,0.3893,0.389,0.3887,0.3883,0.3887,0.3884,0.3889,0.3892,0.3893,0.3894,0.3895,0.3897,0.3874,0.3874,0.3873,0,0,0.3965,0.3957,0.3956,0.3948,0.3942,0.394,0.3927,0.3926,0.3924,0.3909,0.3907,0.3901,0.3893,0.3894,0.3894,0.3889,0.39,0.3895,0.3896,0.3896,0.3896,0.3899,0.3901,0.3874,0.3874,0.3874,0,0,0.398,0.3974,0.3975,0.397,0.3961,0.3953,0.3953,0.3942,0.3937,0.3936,0.3925,0.3923,0.3917,0.3911,0.3907,0.3921,0.3912,0.392,0.3931,0.3932,0.3934,0.3935,0.394,0.3942,0.3921,0.3921,0.3921,0,0.3992,0.3989,0.3977,0.3977,0.3973,0.3959,0.3961,0.3956,0.3946,0.3944,0.3939,0.3931,0.3924,0.3924,0.3928,0.3925,0.3925,0.3921,0.3935,0.3936,0.3937,0.3941,0.3943,0.3922,0.3921,0.3921,0.3921,0,0.4004,0.4002,0.4004,0.3995,0.3992,0.3993,0.3981,0.398,0.3972,0.3965,0.3964,0.3955,0.3949,0.3949,0.3941,0.3947,0.3945,0.3937,0.3927,0.3941,0.3944,0.3946,0.3923,0.3923,0.3922,0.3922,0,0,0.4029,0.4014,0.4015,0.4011,0.4001,0.3999,0.3999,0.3993,0.3992,0.3986,0.3985,0.3981,0.3974,0.397,0.3961,0.3963,0.3973,0.3955,0.3955,0.3958,0.398,0.3985,0.3987,0.3968,0.3968,0.3968,0.398,0,0.4042,0.4041,0.4031,0.4032,0.403,0.4018,0.4018,0.4011,0.4004,0.4001,0.3994,0.3991,0.3982,0.3979,0.398,0.3972,0.3977,0.3971,0.3967,0.3967,0.3968,0.3989,0.3994,0.4005,0.3981,0.3982,0.3982,0,0.4056,0.4051,0.4053,0.4043,0.4041,0.4041,0.4035,0.4033,0.4025,0.402,0.4016,0.4007,0.4006,0.3998,0.3996,0.3992,0.399,0.3985,0.3986,0.3984,0.3975,0.3987,0.4009,0.401,0.3984,0.3984,0.3984,0,0.4074,0.4068,0.4068,0.4065,0.4053,0.4053,0.4048,0.404,0.4038,0.4032,0.403,0.4025,0.4022,0.4018,0.4008,0.4003,0.4008,0.3998,0.4003,0.4003,0.4004,0.4004,0.4025,0.4004,0.4004,0.4004,0.4004,0,0.4089,0.409,0.4076,0.4076,0.4077,0.4066,0.4067,0.4061,0.4054,0.4052,0.4041,0.404,0.4027,0.4024,0.4017,0.4016,0.4015,0.4011,0.4009,0.4011,0.4012,0.4009,0.4008,0.4004,0.4004,0.4004,0.4004,0,0.4109,0.4099,0.4098,0.4087,0.4084,0.4086,0.4076,0.4076,0.4069,0.4067,0.4066,0.4054,0.4051,0.404,0.4034,0.4029,0.403,0.4027,0.4033,0.4031,0.4037,0.4036,0.4056,0.4058,0.4036,0.4036,0.4037,0,0.4118,0.4119,0.4108,0.4107,0.4102,0.41,0.4097,0.4086,0.4083,0.4075,0.4075,0.4071,0.4067,0.4061,0.4052,0.4047,0.4043,0.4051,0.4042,0.4045,0.4042,0.4042,0.4042,0.4052,0.4052,0.4053,0.4053,0,0.4137,0.4132,0.4128,0.4123,0.412,0.4116,0.411,0.4109,0.4097,0.4095,0.4091,0.4088,0.4081,0.4077,0.4071,0.4065,0.4057,0.4056,0.4056,0.4059,0.4062,0.406,0.4037,0.4055,0.4055,0.4055,0.4055,0.4054,0.4151,0.4151,0.4144,0.414,0.4135,0.413,0.4129,0.4122,0.4119,0.4113,0.4107,0.4104,0.4096,0.4087,0.4082,0.408,0.4075,0.4076,0.4077,0.4077,0.4078,0.4064,0.4079,0.4078,0.4078,0.4078,0.4078,0,0.4168,0.4163,0.416,0.4153,0.415,0.4143,0.4137,0.4135,0.4132,0.4126,0.4122,0.4118,0.4114,0.4105,0.41,0.4099,0.4095,0.4098,0.4098,0.4096,0.4083,0.4082,0.4101,0.4101,0.4101,0.4101,0.4101,0.4101,0.4177,0.4176,0.4171,0.4168,0.4162,0.4159,0.4156,0.4152,0.4147,0.4143,0.414,0.4134,0.4127,0.4121,0.4117,0.4114,0.4112,0.4117,0.4113,0.41,0.4098,0.4095,0.4095,0.4117,0.4117,0.4127,0.4127,0.4127]},{"header":{"parameterUnit":"m.s-1","parameterCategory":1,"la1":30.2991,"la2":30.254,"lo1":-89.0895,"lo2":-89.0444,"dy":0.0017,"dx":0.0017,"nx":28,"ny":28,"refTime":"2023-10-06T21:00:00:Z","depth":0,"parameterNumber":3,"parameterNumberName":"V-component_of_WINDS"},"data":[0,0,0,0,0,0,0,0,0,0,0,0,0,0,0,0,0,0,0,0,0,0,0,0,0,0,0,0,0,0,0,0,0,0,0,0,0,0,0,0,0,0,0,0,0,0,0,0,0,0,0,0,0,0,0,0,0,0,-4.9414,-4.9416,0,-4.955,-4.9551,-4.9553,-4.9516,-4.9513,-4.951,-4.9508,-4.9643,-4.9649,-4.9655,0,0,0,0,0,0,0,0,0,0,0,0,0,-4.9122,-4.9128,-4.9414,-4.9416,-4.9418,-4.9549,-4.9551,-4.9553,-4.9516,-4.9513,-4.951,-4.9507,-4.9641,-4.9648,-4.9655,0,0,0,0,0,0,0,0,0,0,0,0,0,-4.9252,-4.913,-4.9414,-4.9415,-4.9417,-4.9549,-4.9551,-4.9553,-4.9517,-4.9513,-4.9509,-4.9505,-4.9639,-4.9647,-4.9656,-4.9795,0,0,-4.9685,-4.9689,0,0,0,0,0,0,0,0,-4.9245,-4.9263,-4.9413,-4.9415,-4.9417,-4.9512,-4.9498,-4.9634,-4.9518,-4.9479,-4.9508,-4.9503,-4.9602,-4.9614,-4.9648,-4.9801,-4.9807,-4.9685,-4.9691,-4.9695,-4.9697,0,0,0,0,0,0,0,-4.9236,-4.9257,-4.9468,-4.9416,-4.9418,-4.9408,-4.9422,-4.9523,-4.9562,-4.9482,-4.948,-4.9496,-4.9603,-4.964,-4.9651,-4.9809,-4.9685,-4.9693,-4.9699,-4.9703,-5.0084,-5.0088,0,0,0,0,0,0,-4.9226,-4.925,-4.9463,-4.9472,-4.932,-4.9417,-4.9433,-4.9485,-4.956,-4.9568,-4.95,-4.9494,-4.9626,-4.9641,-4.9656,-4.9825,-4.9695,-4.9703,-4.9709,-5.0079,-5.0085,-5.009,0,0,0,0,0,0,-4.922,-4.9245,-4.9458,-4.936,-4.9387,-4.9426,-4.9486,-4.949,-4.9527,-4.9574,-4.958,-4.9531,-4.9623,-4.9643,-4.9761,-4.9829,-4.9708,-4.9716,-5.0074,-5.0081,-5.0088,-5.0163,0,0,0,0,0,0,-4.9212,-4.9243,-4.9297,-4.9362,-4.9392,-4.9562,-4.949,-4.9496,-4.9544,-4.9538,-4.9605,-4.9612,-4.9622,-4.9748,-4.977,-4.984,-4.9723,-5.0068,-5.0077,-5.0085,-5.0154,-5.0171,-5.0186,0,0,0,0,0,-4.9201,-4.9311,-4.9299,-4.9325,-4.946,-4.9566,-4.9583,-4.9593,-4.9549,-4.9603,-4.9633,-4.961,-4.9818,-4.976,-4.9785,-4.9858,-5.0064,-5.0075,-5.0085,-5.0147,-5.0168,-5.0186,0,0,0,0,0,0,-4.9251,-4.9319,-4.9307,-4.9442,-4.9499,-4.9559,-4.9627,-4.9614,-4.9683,-4.9675,-4.9683,-4.9699,-4.982,-4.985,-4.9785,-4.9997,-4.9934,-4.995,-4.9973,-4.9993,-5.0009,-5.0,-4.9731,0,0,0,0,0,-4.9278,-4.9359,-4.9414,-4.9527,-4.9556,-4.9587,-4.9634,-4.9637,-4.9696,-4.9719,-4.9758,-4.9815,-4.9893,-4.9944,-5.0019,-5.0158,-5.0173,-5.0221,-5.0236,-5.0249,-5.0263,-5.0342,-5.0365,-5.0124,-5.0124,-5.0124,0,0,-4.9333,-4.9381,-4.9431,-4.9538,-4.9583,-4.9667,-4.9608,-4.9698,-4.9761,-4.9732,-4.9848,-4.9878,-4.9942,-5.0073,-5.0132,-5.0102,-5.0333,-5.0262,-5.0272,-5.028,-5.0355,-5.0378,-5.0398,-5.0131,-5.013,-5.0129,0,0,-4.9478,-4.9522,-4.9622,-4.9669,-4.9737,-4.9758,-4.9782,-4.9846,-4.9865,-4.9981,-4.9963,-5.0036,-5.0171,-5.0218,-5.026,-5.0426,-5.0407,-5.0449,-5.0532,-5.0609,-5.0628,-5.0645,-5.0706,-5.0728,-5.0463,-5.0463,-5.0463,0,-4.9539,-4.9666,-4.9675,-4.9769,-4.9818,-4.9797,-4.9899,-4.9943,-5.0032,-5.0066,-5.0031,-5.0201,-5.0242,-5.0385,-5.0426,-5.0459,-5.0488,-5.0443,-5.0625,-5.0642,-5.0657,-5.0716,-5.0739,-5.0468,-5.0467,-5.0467,-5.0466,0,-4.9738,-4.9826,-4.9899,-4.9988,-5.0044,-5.0142,-5.0166,-5.0221,-5.022,-5.0244,-5.0363,-5.0413,-5.0498,-5.0532,-5.053,-5.0675,-5.0655,-5.0622,-5.0559,-5.0685,-5.0741,-5.0763,-5.0475,-5.0473,-5.0472,-5.0471,0,0,-4.9918,-5.0013,-5.004,-5.0081,-5.0156,-5.0224,-5.0321,-5.0407,-5.0455,-5.0517,-5.06,-5.0715,-5.0686,-5.0734,-5.0737,-5.0804,-5.0936,-5.0764,-5.0765,-5.0796,-5.1102,-5.1128,-5.1153,-5.0923,-5.0928,-5.0931,-5.1097,0,-5.0072,-5.0244,-5.0256,-5.0412,-5.0495,-5.0477,-5.0562,-5.0617,-5.0642,-5.0716,-5.0743,-5.0826,-5.078,-5.0809,-5.0874,-5.0906,-5.0998,-5.0894,-5.1001,-5.1005,-5.0988,-5.1182,-5.1209,-5.1364,-5.1119,-5.1122,-5.1125,0,-5.0274,-5.0345,-5.051,-5.0576,-5.0611,-5.0687,-5.0768,-5.0838,-5.0901,-5.0914,-5.0969,-5.0964,-5.1064,-5.0997,-5.1135,-5.1064,-5.1109,-5.1131,-5.1137,-5.1149,-5.1074,-5.1202,-5.1413,-5.1437,-5.1159,-5.1156,-5.1154,0,-5.0392,-5.0529,-5.0646,-5.0681,-5.0761,-5.0815,-5.085,-5.0909,-5.0961,-5.103,-5.1064,-5.1144,-5.1188,-5.125,-5.1267,-5.1216,-5.1407,-5.134,-5.1422,-5.1422,-5.1464,-5.1462,-5.1688,-5.1489,-5.1488,-5.1488,-5.1488,0,-5.0564,-5.0666,-5.0701,-5.0773,-5.0887,-5.09,-5.1012,-5.1044,-5.1097,-5.1175,-5.1163,-5.1237,-5.1254,-5.133,-5.1344,-5.1458,-5.1477,-5.1492,-5.1495,-5.1495,-5.1493,-5.1526,-5.1516,-5.1494,-5.1493,-5.1492,-5.1491,0,-5.0716,-5.0743,-5.087,-5.0936,-5.0955,-5.1036,-5.1092,-5.1162,-5.1186,-5.1285,-5.1309,-5.1347,-5.1437,-5.146,-5.1566,-5.1575,-5.1712,-5.1702,-5.1691,-5.1692,-5.1773,-5.1767,-5.203,-5.2066,-5.1841,-5.1843,-5.1845,0,-5.0825,-5.0904,-5.0979,-5.1031,-5.107,-5.1154,-5.1207,-5.1223,-5.1279,-5.1358,-5.1418,-5.1507,-5.158,-5.1724,-5.1761,-5.1843,-5.1838,-5.1925,-5.185,-5.1849,-5.1843,-5.1839,-5.1848,-5.194,-5.1942,-5.1944,-5.1945,0,-5.1017,-5.1027,-5.1105,-5.1189,-5.1253,-5.1319,-5.1382,-5.1426,-5.145,-5.1514,-5.1607,-5.1663,-5.1774,-5.1863,-5.1947,-5.1982,-5.197,-5.1969,-5.1992,-5.1994,-5.1986,-5.1995,-5.1733,-5.1963,-5.1961,-5.196,-5.1959,-5.1958,-5.1153,-5.1223,-5.1288,-5.1376,-5.1425,-5.1485,-5.1555,-5.1589,-5.1667,-5.176,-5.1764,-5.1866,-5.1928,-5.2039,-5.208,-5.216,-5.2134,-5.2168,-5.2177,-5.2186,-5.2194,-5.1971,-5.2175,-5.2174,-5.2174,-5.2174,-5.2173,0,-5.1346,-5.1388,-5.1468,-5.1559,-5.1628,-5.161,-5.168,-5.1739,-5.183,-5.189,-5.1962,-5.207,-5.2157,-5.2202,-5.2288,-5.2344,-5.234,-5.2367,-5.2364,-5.2373,-5.2211,-5.2184,-5.2368,-5.2368,-5.2368,-5.2368,-5.2368,-5.2368,-5.1455,-5.1574,-5.1593,-5.1737,-5.1777,-5.1878,-5.192,-5.1975,-5.2024,-5.2146,-5.2219,-5.2248,-5.2302,-5.2393,-5.2473,-5.2483,-5.2517,-5.2547,-5.2555,-5.2404,-5.2384,-5.2365,-5.2339,-5.2554,-5.2554,-5.271,-5.2712,-5.2713]}]]